Weather reports worldwide

Advertisment
Dresden-Klotzsche, Germany (10488): temperature & dewpoint: 06.12.2018 00:00:00 - 12.12.2018 00:00:00 (CET)Dresden-Klotzsche, Germany (10488): temperature 5cm & temperature -5cm: 06.12.2018 00:00:00 - 12.12.2018 00:00:00 (CET)Dresden-Klotzsche, Germany (10488): temperature -20cm & temperature -100cm: 06.12.2018 00:00:00 - 12.12.2018 00:00:00 (CET)Dresden-Klotzsche, Germany (10488): wind speed & gusts: 06.12.2018 00:00:00 - 12.12.2018 00:00:00 (CET)Dresden-Klotzsche, Germany (10488): wind direction: 06.12.2018 00:00:00 - 12.12.2018 00:00:00 (CET)Dresden-Klotzsche, Germany (10488): reduced air pressure: 06.12.2018 00:00:00 - 12.12.2018 00:00:00 (CET)Dresden-Klotzsche, Germany (10488): visibility: 06.12.2018 00:00:00 - 12.12.2018 00:00:00 (CET)Dresden-Klotzsche, Germany (10488): sunshine duration: 06.12.2018 00:00:00 - 12.12.2018 00:00:00 (CET)Dresden-Klotzsche, Germany (10488): precipitation: 06.12.2018 00:00:00 - 12.12.2018 00:00:00 (CET)
Date & Time tt [°C] td [°C] tt 5cm [°C] tt -5cm [°C] tt -20cm [°C] tt -100cm [°C] ff [km/h] ff [kn] fx [km/h] fx [kn] dd ppp [hPa] vv [km] sd [min] rr [mm]
12.12.2018 00:00:00 1,8 1,5 1,6 2,9 3,9 7,0 16 9 37 20 NNW 1018,9 10 0 0,3
11.12.2018 23:00:00 2,3 1,8 1,9 3,0 3,9 7,0 24 13 41 22 NW 1018,3 10 0 0,6
11.12.2018 22:00:00 2,3 1,9 2,0 3,1 3,9 7,0 21 11 37 20 NW 1017,9 8 0 0,4
11.12.2018 21:00:00 2,4 2,0 2,2 3,1 3,9 7,0 21 11 40 21 NW 1017,6 10 0 0,2
11.12.2018 20:00:00 2,4 2,0 2,2 3,1 3,9 7,0 21 11 35 19 NW 1017,4 10 0 0,1
11.12.2018 19:00:00 2,3 1,9 2,1 3,1 4,0 7,0 22 12 35 19 NW 1017,2 10 0 0,4
11.12.2018 18:00:00 2,2 1,7 1,9 3,2 4,0 7,1 18 10 38 21 NW 1016,8 9 0 0,2
11.12.2018 17:00:00 2,6 1,9 2,2 3,3 4,0 7,1 24 13 41 22 NW 1016,4 11 0 0,1
11.12.2018 16:00:00 2,8 1,9 2,4 3,3 4,0 7,1 23 13 42 23 NW 1016,3 12 0 0,0
11.12.2018 15:00:00 2,9 2,0 2,5 3,3 4,0 7,1 28 15 44 24 NW 1015,6 10 0 0,0
11.12.2018 14:00:00 2,9 2,0 2,5 3,3 3,9 7,1 26 14 44 24 WNW 1015,0 14 0 0,0
11.12.2018 13:00:00 2,9 2,0 2,5 3,2 3,9 7,1 26 14 44 24 NW 1014,6 10 0 0,3
11.12.2018 12:00:00 2,8 2,1 2,5 3,2 3,9 7,1 30 16 47 25 WNW 1014,2 10 0 0,3
11.12.2018 11:00:00 2,7 2,0 2,4 3,1 3,9 7,1 28 15 53 28 WNW 1013,9 7 0 0,6
11.12.2018 10:00:00 2,8 1,9 2,3 3,0 3,9 7,1 29 16 55 30 NW 1013,4 7 0 0,7
11.12.2018 09:00:00 2,6 1,6 2,1 3,0 3,9 7,1 31 17 57 31 WNW 1012,9 9 0 0,4
11.12.2018 08:00:00 3,0 1,2 2,2 3,1 3,9 7,1 28 15 61 33 WNW 1012,4 10 0 0,2
11.12.2018 07:00:00 3,3 1,4 2,4 3,1 3,9 7,1 26 14 53 28 W 1012,3 10 0 0,0
11.12.2018 06:00:00 3,0 1,7 2,4 3,0 3,9 7,1 24 13 42 23 WNW 1012,7 10 0 0,1
11.12.2018 05:00:00 3,0 1,6 2,3 3,0 4,0 7,1 18 10 44 24 W 1012,7 10 0 0,0
11.12.2018 04:00:00 2,9 1,4 2,2 2,8 4,0 7,2 22 12 40 22 W 1012,8 10 0 0,0
11.12.2018 03:00:00 2,2 1,1 1,7 2,9 4,0 7,2 21 11 38 21 WNW 1012,8 10 0 0,0
11.12.2018 02:00:00 2,4 1,5 1,9 2,9 4,0 7,2 26 14 41 22 WNW 1012,6 25 0 0,1
11.12.2018 01:00:00 2,1 1,3 1,7 2,9 4,1 7,2 30 16 53 29 WNW 1012,4 9 0 0,3
11.12.2018 00:00:00 2,3 1,0 1,6 2,9 4,1 7,2 31 17 53 29 W 1012,3 12 0 0,1
10.12.2018 23:00:00 2,4 0,9 1,7 2,9 4,2 7,2 26 14 46 25 W 1012,6 30 0 0,0
10.12.2018 22:00:00 1,9 0,9 1,5 2,9 4,2 7,2 24 13 44 24 W 1013,3 10 0 0,3
10.12.2018 21:00:00 2,1 0,6 1,5 3,0 4,3 7,2 23 12 43 23 W 1013,6 11 0 0,1
10.12.2018 20:00:00 2,1 0,5 1,5 3,0 4,3 7,2 18 10 42 23 W 1013,5 9 0 0,4
10.12.2018 19:00:00 2,7 0,5 1,8 3,1 4,4 7,2 27 14 44 24 W 1013,6 17 0 0,0
10.12.2018 18:00:00 3,1 -0,2 1,9 3,2 4,5 7,2 22 12 48 26 W 1013,9 10 0 0,0
10.12.2018 17:00:00 3,4 -0,3 2,1 3,3 4,5 7,2 24 13 43 23 W 1013,7 40 0 0,0
10.12.2018 16:00:00 3,9 0,1 2,6 3,4 4,6 7,2 18 10 42 23 W 1013,3 10 0 0,0
10.12.2018 15:00:00 3,6 0,3 2,2 3,3 4,7 7,2 16 9 40 21 WNW 1013,1 10 7 0,0
10.12.2018 14:00:00 2,5 0,9 1,6 3,3 4,9 7,2 17 9 56 30 WNW 1013,1 20 0 1,5
10.12.2018 13:00:00 1,3 0,4 1,0 4,2 4,9 7,2 34 18 72 39 NW 1013,3 5 10 0,2
10.12.2018 12:00:00 4,0 1,0 3,7 4,1 4,9 7,2 30 16 51 28 WNW 1013,0 15 4 0,0
10.12.2018 11:00:00 3,6 1,3 3,2 4,0 4,9 7,2 29 16 49 26 WNW 1013,1 13 0 0,3
10.12.2018 10:00:00 3,4 1,3 2,7 3,9 5,0 7,2 26 14 48 26 W 1012,8 10 0 0,0
10.12.2018 09:00:00 2,9 1,8 2,4 3,9 5,0 7,2 21 11 46 25 W 1012,1 10 0 0,1
10.12.2018 08:00:00 3,0 1,9 2,6 4,0 5,1 7,2 30 16 44 24 W 1011,4 15 0 0,0
10.12.2018 07:00:00 3,4 1,6 2,8 4,1 5,2 7,2 26 14 51 27 W 1010,6 10 0 0,0
10.12.2018 06:00:00 3,7 2,1 3,0 4,2 5,2 7,1 22 12 40 21 WNW 1009,5 10 0 0,0
10.12.2018 05:00:00 4,0 2,0 3,1 4,3 5,3 7,1 28 15 57 31 WNW 1008,7 10 0 0,0
10.12.2018 04:00:00 4,6 1,4 3,5 4,4 5,4 7,1 29 16 51 28 WNW 1007,7 35 0 0,0
10.12.2018 03:00:00 4,6 2,0 3,5 4,5 5,4 7,1 28 15 58 31 WNW 1007,1 10 0 0,5
10.12.2018 02:00:00 5,2 1,5 4,0 4,7 5,5 7,1 26 14 55 30 W 1006,3 30 0 0,0
10.12.2018 01:00:00 5,4 1,8 4,3 4,8 5,6 7,1 35 19 55 30 WNW 1005,3 25 0 0,0
10.12.2018 00:00:00 5,7 2,3 4,4 4,8 5,6 7,1 34 18 54 29 W 1004,5 30 0 0,0
09.12.2018 23:00:00 4,7 2,7 3,4 5,0 5,7 7,1 24 13 57 31 WNW 1003,8 10 0 0,4
09.12.2018 22:00:00 5,6 2,9 4,6 5,2 5,7 7,1 31 17 53 28 WNW 1002,9 30 0 0,0
09.12.2018 21:00:00 5,8 3,8 4,7 5,3 5,8 7,1 26 14 54 29 W 1001,7 10 0 0,2
09.12.2018 20:00:00 6,2 3,2 4,9 5,3 5,8 7,1 24 13 48 26 W 1000,6 10 0 0,0
09.12.2018 19:00:00 6,2 3,0 4,9 5,4 5,9 7,1 22 12 42 23 W 999,6 10 0 0,0
09.12.2018 18:00:00 6,5 3,7 5,0 5,5 6,0 7,1 25 13 44 24 WSW 998,6 40 0 0,0
09.12.2018 17:00:00 6,6 3,8 5,1 5,7 6,0 7,1 24 13 40 21 W 998,0 35 0 0,0
09.12.2018 16:00:00 6,3 3,9 4,7 6,0 6,1 7,1 24 13 54 29 W 997,4 40 0 0,6
09.12.2018 15:00:00 7,1 5,0 5,9 6,4 6,0 7,1 33 18 53 28 W 996,4 8 0 0,0
09.12.2018 14:00:00 7,6 4,2 6,6 6,5 5,9 7,1 26 14 56 30 WSW 995,3 10 0 0,0
09.12.2018 13:00:00 8,4 3,8 7,3 6,4 5,8 7,1 28 15 61 33 W 994,8 10 0 0,0
09.12.2018 12:00:00 8,1 4,4 7,0 6,1 5,7 7,1 28 15 61 33 W 994,8 10 0 0,0
09.12.2018 11:00:00 7,8 4,0 6,9 5,8 5,7 7,1 26 14 61 33 WSW 994,8 10 0 0,0
09.12.2018 10:00:00 7,4 3,5 5,9 5,6 5,7 7,0 35 19 59 32 WSW 994,6 30 0 0,0
09.12.2018 09:00:00 7,1 4,0 5,7 5,5 5,6 7,0 32 18 49 27 WSW 994,1 37 0 0,2
09.12.2018 08:00:00 6,8 4,4 5,5 5,6 5,6 7,0 28 15 51 28 W 993,4 10 0 0,4
09.12.2018 07:00:00 7,1 5,0 5,7 5,6 5,6 7,0 26 14 57 31 W 992,8 10 0 0,9
09.12.2018 06:00:00 8,2 4,6 6,4 5,5 5,5 7,0 31 17 54 29 WSW 991,8 25 0 0,0
09.12.2018 05:00:00 8,8 4,1 6,6 5,5 5,5 7,0 32 17 51 27 SW 992,2 50 0 0,0
09.12.2018 04:00:00 9,1 4,5 6,9 5,3 5,4 7,0 28 15 48 26 SW 992,8 10 0 0,0
09.12.2018 03:00:00 7,8 4,5 6,0 5,2 5,4 7,0 28 15 32 17 SSW 993,6 10 0 0,0
09.12.2018 02:00:00 7,0 5,0 5,7 5,0 5,4 7,0 16 9 54 29 S 995,4 35 0 0,7
09.12.2018 01:00:00 8,2 2,9 7,0 4,8 5,4 7,0 28 15 40 22 SSW 997,0 10 0 0,0
09.12.2018 00:00:00 7,7 2,9 6,4 4,6 5,5 7,0 21 11 41 22 SSW 998,9 50 0 0,0
08.12.2018 23:00:00 6,7 2,2 4,3 4,6 5,6 7,0 24 13 38 21 SW 1000,5 10 0 0,0
08.12.2018 22:00:00 6,6 2,4 4,3 4,9 5,7 7,0 24 13 40 22 SW 1001,5 10 0 0,0
08.12.2018 21:00:00 7,3 2,9 5,6 5,2 5,8 6,9 24 13 53 29 WSW 1002,4 10 0 0,0
08.12.2018 20:00:00 7,1 3,1 5,1 5,3 5,9 6,9 24 13 57 31 WSW 1003,1 10 0 0,0
08.12.2018 19:00:00 7,0 3,0 4,7 5,4 5,9 6,9 33 18 57 31 WSW 1003,2 55 0 0,0
08.12.2018 18:00:00 6,9 3,1 5,0 5,6 6,0 6,9 34 18 54 29 WSW 1003,3 50 0 0,0
08.12.2018 17:00:00 6,0 3,5 4,8 5,8 6,1 6,9 28 15 59 32 WSW 1003,7 10 0 0,5
08.12.2018 16:00:00 7,4 1,9 6,3 6,1 6,1 6,9 29 16 53 29 WSW 1003,4 10 6 0,0
08.12.2018 15:00:00 7,8 1,9 6,7 6,5 6,0 6,9 28 15 63 34 WSW 1003,6 10 42 0,0
08.12.2018 14:00:00 8,4 2,1 9,1 6,5 5,9 6,9 31 17 59 32 WSW 1004,1 10 35 0,0
08.12.2018 13:00:00 7,9 1,8 7,5 6,2 5,7 6,8 31 17 62 34 WSW 1004,6 10 13 0,0
08.12.2018 12:00:00 8,5 2,1 10,6 5,7 5,6 6,8 35 19 58 31 WSW 1005,1 10 50 0,0
08.12.2018 11:00:00 7,7 1,4 8,9 4,9 5,6 6,8 28 15 52 28 WSW 1006,0 10 38 0,0
08.12.2018 10:00:00 6,5 1,1 5,2 4,7 5,8 6,8 28 15 42 23 SW 1006,8 10 53 0,0
08.12.2018 09:00:00 5,6 1,1 3,8 4,9 5,9 6,8 26 14 42 23 SW 1007,2 45 2 0,0
08.12.2018 08:00:00 5,9 0,7 4,9 5,1 6,0 6,8 18 10 34 18 SW 1007,3 10 0 0,0
08.12.2018 07:00:00 5,8 1,3 4,5 5,3 6,2 6,7 16 9 - - SW 1007,5 10 0 0,0
08.12.2018 06:00:00 5,9 1,9 5,0 5,6 6,3 6,7 20 11 35 19 SW 1007,3 50 0 0,0
08.12.2018 05:00:00 6,0 2,0 5,2 5,8 6,4 6,7 18 10 37 20 WSW 1006,3 10 0 0,0
08.12.2018 04:00:00 6,4 2,3 5,2 6,2 6,6 6,7 31 17 50 27 W 1004,9 60 0 0,0
08.12.2018 03:00:00 7,0 2,9 5,8 6,8 6,6 6,7 28 15 62 34 W 1003,9 10 0 0,0
08.12.2018 02:00:00 8,0 4,2 7,0 7,2 6,6 6,7 41 22 79 43 WNW 1002,0 10 0 0,0
08.12.2018 01:00:00 10,8 6,0 8,9 7,2 6,6 6,7 30 16 49 27 WSW 1000,2 60 0 0,0
08.12.2018 00:00:00 10,9 5,9 8,7 7,1 6,6 6,7 28 15 52 28 WSW 999,9 10 0 0,0
07.12.2018 23:00:00 10,6 5,6 8,5 7,1 6,7 6,6 24 13 42 23 SW 1000,2 10 0 0,0
07.12.2018 22:00:00 10,1 5,9 8,0 7,3 6,7 6,6 26 14 51 28 SW 1000,7 10 0 0,0
07.12.2018 21:00:00 9,8 6,8 8,0 7,4 6,6 6,6 18 10 42 23 SW 1001,3 10 0 0,3
07.12.2018 20:00:00 9,6 8,1 8,3 7,6 6,6 6,6 11 6 35 19 SW 1002,3 10 0 3,5
07.12.2018 19:00:00 9,7 8,5 8,6 7,6 6,5 6,6 15 8 25 13 S 1002,7 10 0 0,5
07.12.2018 18:00:00 9,9 8,4 8,8 7,6 6,5 6,6 18 10 41 22 SSW 1003,1 10 0 0,4
07.12.2018 17:00:00 10,0 8,5 8,9 7,7 6,4 6,6 13 7 34 18 SW 1004,6 10 0 0,0
07.12.2018 16:00:00 10,6 8,6 9,1 7,8 6,3 6,6 16 9 35 19 SW 1005,4 10 0 0,0
07.12.2018 15:00:00 10,7 9,1 9,5 7,9 6,1 6,6 22 12 32 17 SW 1006,7 20 0 0,7
07.12.2018 14:00:00 9,7 9,3 9,4 7,8 6,0 6,6 11 6 18 10 SSW 1007,8 10 0 0,7
07.12.2018 13:00:00 10,3 9,7 9,8 7,7 5,7 6,6 11 6 27 14 SW 1008,5 10 0 0,9
07.12.2018 12:00:00 11,2 10,1 10,4 7,3 5,5 6,6 15 8 34 18 SW 1009,5 10 0 0,7
07.12.2018 11:00:00 11,4 9,6 10,0 7,0 5,3 6,6 19 11 35 19 SW 1010,5 18 0 0,4
07.12.2018 10:00:00 11,1 9,6 9,7 6,6 5,1 6,6 16 9 48 26 SW 1011,2 10 0 0,4
07.12.2018 09:00:00 10,8 9,5 9,5 6,2 5,0 6,6 20 11 34 18 SW 1011,7 8 0 0,6
07.12.2018 08:00:00 10,6 9,5 9,2 5,9 4,8 6,6 18 10 29 16 SW 1012,2 13 0 0,5
07.12.2018 07:00:00 10,2 7,9 8,9 5,6 4,7 6,6 15 8 28 15 SW 1012,4 10 0 0,0
07.12.2018 06:00:00 9,6 7,3 8,6 5,4 4,5 6,6 17 9 29 16 SSW 1012,9 40 0 0,0
07.12.2018 05:00:00 9,6 7,2 8,4 5,1 4,4 6,6 13 7 34 18 SSW 1013,4 10 0 0,0
07.12.2018 04:00:00 8,3 6,3 7,3 4,9 4,3 6,6 16 9 27 15 SSW 1014,1 20 0 0,0
07.12.2018 03:00:00 8,7 6,4 7,5 4,7 4,2 6,6 16 9 21 11 SSW 1015,0 20 0 0,0
07.12.2018 02:00:00 7,6 5,7 6,7 4,4 4,1 6,6 11 6 24 13 SSW 1015,5 10 0 0,0
07.12.2018 01:00:00 6,5 5,1 5,8 4,3 4,0 6,6 13 7 26 14 SW 1016,3 10 0 0,0
07.12.2018 00:00:00 6,1 4,7 5,4 4,1 4,0 6,7 13 7 23 13 SW 1016,9 10 0 0,0
06.12.2018 23:00:00 5,6 4,6 4,9 4,0 3,9 6,7 13 7 22 12 SSW 1017,1 10 0 0,0
06.12.2018 22:00:00 5,5 4,8 4,8 3,9 3,8 6,7 13 7 24 13 SSW 1017,5 10 0 0,0
06.12.2018 21:00:00 5,3 4,8 4,7 3,7 3,8 6,7 14 8 18 10 S 1017,8 20 0 0,1
06.12.2018 20:00:00 5,0 4,2 4,2 3,6 3,7 6,7 15 8 25 14 S 1018,1 15 0 0,0
06.12.2018 19:00:00 3,7 3,0 3,3 3,5 3,7 6,7 15 8 23 13 S 1018,3 10 0 0,0
06.12.2018 18:00:00 3,3 2,3 3,0 3,5 3,6 6,7 11 6 29 16 S 1018,6 10 0 0,0
06.12.2018 17:00:00 3,3 2,7 3,0 3,5 3,6 6,7 8 4 28 15 SSE 1018,4 10 0 0,2
06.12.2018 16:00:00 3,8 2,0 3,2 3,6 3,5 6,7 16 8 23 12 SSE 1018,3 8 0 0,0
06.12.2018 15:00:00 4,8 0,8 4,6 3,5 3,4 6,7 18 10 29 16 SSE 1017,9 35 0 0,0
06.12.2018 14:00:00 4,7 0,3 4,7 3,4 3,2 6,8 16 9 31 17 SSE 1017,8 10 0 0,0
06.12.2018 13:00:00 4,5 -0,6 4,5 3,1 3,1 6,8 11 6 31 17 SSE 1018,5 10 0 0,0
06.12.2018 12:00:00 4,4 -1,3 4,4 2,8 3,0 6,8 16 9 36 20 SSE 1018,6 10 0 0,0
06.12.2018 11:00:00 4,0 -2,0 4,3 2,4 2,9 6,8 27 15 37 20 SSE 1018,8 45 0 0,0
06.12.2018 10:00:00 3,4 -2,5 3,1 2,0 2,8 6,8 25 13 38 20 SSE 1019,1 50 0 0,0
06.12.2018 09:00:00 3,0 -2,9 2,5 1,8 2,8 6,8 16 9 41 22 SSE 1018,9 10 0 0,0
06.12.2018 08:00:00 2,9 -3,1 2,3 1,7 2,8 6,8 34 18 48 26 SSE 1018,5 45 0 0,0
06.12.2018 07:00:00 2,9 -3,6 2,2 1,7 2,8 6,8 28 15 47 25 SSE 1018,5 10 0 0,0
06.12.2018 06:00:00 2,9 -3,9 1,8 1,7 2,8 6,8 29 16 43 23 SSE 1019,2 10 0 0,0
06.12.2018 05:00:00 3,6 -3,7 2,5 1,7 2,8 6,8 22 12 36 20 SSE 1019,9 10 0 0,0
06.12.2018 04:00:00 3,6 -4,2 2,7 1,6 2,9 6,9 22 12 42 23 S 1021,1 10 0 0,0
06.12.2018 03:00:00 3,3 -3,6 2,4 1,5 2,9 6,9 28 15 46 25 SSE 1021,6 10 0 0,0
06.12.2018 02:00:00 3,5 -3,8 2,6 1,4 3,0 6,9 30 16 41 22 SSE 1021,4 30 0 0,0
06.12.2018 01:00:00 2,8 -2,5 1,5 1,4 3,0 6,9 24 13 34 18 SSE 1022,0 10 0 0,0
06.12.2018 00:00:00 2,4 -1,5 1,3 1,5 3,1 6,9 24 13 44 24 SSE 1023,3 30 0 0,0

tt = temperature
td = dewpoint
tt 5cm = temperature 5cm
tt -5cm = temperature -5cm
tt -20cm = temperature -20cm
tt -100cm = temperature -100cm
ff = wind speed
fx = gusts
dd = wind direction
ppp = reduced air pressure
vv = visibility
sd = sunshine duration
rr = precipitation

Next stations